Panama City Tyndall AFB, FL

4:11 AM CDT on October 18, 2017 (GMT -0500)
Tyndall Air Force Base

Weather History for KPAM - May, 2014

Change the Weather History Date:

Monday, May 5, 2014

  Actual Average Record
Temperature  
Mean Temperature 72 °F -  
Max Temperature 80 °F 78 °F 87 °F (2002)
Min Temperature 64 °F 62 °F 47 °F (2013)
Cooling Degree Days 7    
Growing Degree Days 22 (Base 50)    
Moisture  
Dew Point 70 °F    
Average Humidity 97    
Maximum Humidity 100    
Minimum Humidity 69    
Precipitation  
Precipitation 0.00 in - - ()
Sea Level Pressure  
Sea Level Pressure 30.07 in    
Wind  
Wind Speed 3 mph (West)    
Max Wind Speed 12 mph    
Max Gust Speed -    
Visibility 6 miles    
Events Fog    
Averages and records for this station are not official NWS values.
T = Trace of Precipitation, MM = Missing Value Source: NWS Daily Summary

Daily Weather History Graph

Daily Weather History Graph

Search for Another Location

Airport or City:

Trip Planner

Search our weather history database for the weather conditions in past years. The results will help you decide how hot, cold, wet, or windy it might be!

Date:

Astronomy

May. 05, 2014 Rise Set
Actual Time 5:55 AM CDT 7:22 PM CDT
Civil Twilight 5:30 AM CDT 7:48 PM CDT
Nautical Twilight 4:59 AM CDT 8:18 PM CDT
Astronomical Twilight 4:28 AM CDT 8:50 PM CDT
Moon 11:13 AM CDT (5/5) 12:06 AM CDT (5/5)
Length of Visible Light 14h 17m
Length of Day
13h 26m
Waxing Crescent, 37% of the Moon is Illuminated
May 5
Waxing Crescent
May 6
First Quarter
May 14
Full
May 21
Last Quarter
May 28
New

Hourly Weather History & Observations

Time (CDT) Temp. Heat Index Dew Point Humidity Pressure Visibility Wind Dir Wind Speed Gust Speed Precip Events Conditions
12:58 AM 64.6 °F - 64.6 °F 100% 30.11 in 10.0 mi Calm Calm - N/A   Clear
1:58 AM 67.6 °F - 67.6 °F 100% 30.09 in 10.0 mi West 3.5 mph - N/A   Clear
2:58 AM 67.8 °F - 67.8 °F 100% 30.09 in 10.0 mi West 4.6 mph - N/A   Clear
3:58 AM 67.6 °F - 67.6 °F 100% 30.08 in 10.0 mi West 5.8 mph - N/A   Clear
4:58 AM 68.5 °F - 68.5 °F 100% 30.08 in 10.0 mi WNW 4.6 mph - N/A   Mostly Cloudy
5:08 AM 68.0 °F - 68.0 °F 100% 30.07 in 8.0 mi WNW 3.5 mph - N/A   Mostly Cloudy
5:13 AM 68.0 °F - 68.0 °F 100% 30.07 in 4.0 mi WNW 3.5 mph - N/A   Mostly Cloudy
5:18 AM 68.0 °F - 68.0 °F 100% 30.07 in 3.0 mi WNW 3.5 mph - N/A   Mostly Cloudy
5:23 AM 68.0 °F - 68.0 °F 100% 30.07 in 4.0 mi NNW 1.2 mph - N/A   Mostly Cloudy
5:28 AM 68.0 °F - 68.0 °F 100% 30.07 in 4.0 mi WNW 3.5 mph - N/A   Scattered Clouds
5:33 AM 68.0 °F - 68.0 °F 100% 30.07 in 4.0 mi WNW 3.5 mph - N/A   Scattered Clouds
5:43 AM 66.2 °F - 66.2 °F 100% 30.08 in 4.0 mi Calm Calm - N/A   Clear
5:58 AM 66.6 °F - 66.6 °F 100% 30.09 in 4.0 mi Calm Calm - N/A   Partly Cloudy
6:18 AM 66.2 °F - 66.2 °F 100% 30.08 in 0.8 mi Calm Calm - N/A   Clear
6:33 AM 64.4 °F - 64.4 °F 100% 30.08 in 0.8 mi Calm Calm - N/A   Clear
6:38 AM 64.4 °F - 64.4 °F 100% 30.08 in 0.2 mi Calm Calm - N/A Fog Fog
6:41 AM 64.4 °F - 64.4 °F 100% 30.08 in 0.5 mi Calm Calm - N/A Fog Fog
6:58 AM 65.7 °F - 65.7 °F 100% 30.10 in 0.4 mi Calm Calm - N/A Fog Fog
7:08 AM 68.0 °F - 68.0 °F 100% 30.09 in 0.8 mi North - - N/A   Clear
7:11 AM 68.0 °F - 68.0 °F 100% 30.09 in 0.9 mi Calm Calm - N/A   Clear
7:13 AM 68.0 °F - 68.0 °F 100% 30.09 in 1.2 mi Calm Calm - N/A   Partly Cloudy
7:23 AM 69.8 °F - 69.8 °F 100% 30.09 in 3.0 mi Calm Calm - N/A   Clear
7:26 AM 69.8 °F - 69.8 °F 100% 30.09 in 2.0 mi Calm Calm - N/A   Partly Cloudy
7:37 AM 69.8 °F - 69.8 °F 100% 30.09 in 2.5 mi NNE 1.2 mph - N/A   Scattered Clouds
7:47 AM 69.8 °F - 69.8 °F 100% 30.09 in 1.5 mi NE 2.3 mph - N/A   Scattered Clouds
7:53 AM 69.8 °F - 69.8 °F 100% 30.09 in 0.4 mi Calm Calm - N/A Fog Fog
7:59 AM 69.8 °F - 69.8 °F 100% 30.10 in 0.4 mi NE 2.3 mph - N/A Fog Fog
8:10 AM 69.8 °F - 69.8 °F 100% 30.09 in 0.5 mi Calm Calm - N/A Fog Fog
8:15 AM 69.8 °F - 69.8 °F 100% 30.09 in 3.0 mi Calm Calm - N/A   Partly Cloudy
8:18 AM 69.8 °F - 69.8 °F 100% 30.09 in 5.0 mi Calm Calm - N/A   Partly Cloudy
8:58 AM 74.5 °F - 74.5 °F 100% 30.10 in 10.0 mi NNW 5.8 mph - N/A   Clear
9:58 AM 77.9 °F - 77.7 °F 99% 30.10 in 10.0 mi NW 6.9 mph - N/A   Clear
10:58 AM 79.3 °F - 79.3 °F 100% 30.10 in 10.0 mi NNW 5.8 mph - N/A   Clear
11:58 AM 78.4 °F - 78.4 °F 100% 30.09 in 10.0 mi WSW 8.1 mph - N/A   Partly Cloudy
12:58 PM 80.6 °F 84.6 °F 71.6 °F 74% 30.07 in 10.0 mi SW 8.1 mph - N/A   Partly Cloudy
1:58 PM 79.2 °F - 69.8 °F 73% 30.05 in 10.0 mi SW 10.4 mph - N/A   Clear
2:58 PM 79.0 °F - 69.8 °F 73% 30.04 in 10.0 mi WSW 11.5 mph - N/A   Partly Cloudy
3:58 PM 78.6 °F - 70.7 °F 77% 30.02 in 10.0 mi SW 10.4 mph - N/A   Partly Cloudy
4:58 PM 78.8 °F - 68.0 °F 69% 30.02 in 10.0 mi SW 10.4 mph - N/A   Clear
5:58 PM 78.4 °F - 78.4 °F 100% 30.02 in 10.0 mi SW 6.9 mph - N/A   Clear
6:58 PM 74.5 °F - 74.5 °F 100% 30.02 in 10.0 mi SW 10.4 mph - N/A   Clear
7:58 PM 72.1 °F - 72.1 °F 100% 30.02 in 10.0 mi WSW 8.1 mph - N/A   Clear
8:58 PM 71.4 °F - 71.4 °F 100% 30.03 in 10.0 mi WSW 8.1 mph - N/A   Clear
9:58 PM 70.5 °F - 70.5 °F 100% 30.03 in 10.0 mi WSW 5.8 mph - N/A   Clear
10:58 PM 70.0 °F - 70.0 °F 100% 30.04 in 10.0 mi WSW 5.8 mph - N/A   Clear
11:58 PM 69.8 °F - 69.8 °F 100% 30.04 in 10.0 mi WSW 5.8 mph - N/A   Clear